Hourly Weather Rudnya Pribytkovskaya

Today, 16 April, Friday

Time Temperature Precipitation Wind Pressure Humidity
00:00 +8°C° 0 mm 1 mps 746 mmHg 89%
01:00 +8°C° 0 mm 1 mps 746 mmHg 89%
02:00 +8°C° 0 mm 1 mps 746 mmHg 90%
03:00 +8°C° 0.1 mm 1 mps 746 mmHg 91%
04:00 +8°C° 0.1 mm 1 mps 746 mmHg 92%
05:00 +8°C° 0.1 mm 1 mps 746 mmHg 93%
06:00 +9°C° 0.3 mm 1 mps 746 mmHg 92%
07:00 +8°C° 0.3 mm 2 mps 746 mmHg 90%
08:00 +9°C° 0.3 mm 2 mps 746 mmHg 88%
09:00 +9°C° 0.4 mm 3 mps 746 mmHg 83%
10:00 +9°C° 0.4 mm 5 mps 746 mmHg 77%
11:00 +10°C° 0.4 mm 6 mps 746 mmHg 72%
12:00 +10°C° 0.3 mm 6 mps 746 mmHg 74%
13:00 +9°C° 0.3 mm 5 mps 747 mmHg 77%
14:00 +9°C° 0.3 mm 5 mps 747 mmHg 79%
15:00 +9°C° 0.2 mm 5 mps 747 mmHg 81%
16:00 +8°C° 0.2 mm 4 mps 747 mmHg 82%
17:00 +8°C° 0.2 mm 4 mps 747 mmHg 83%
18:00 +9°C° 0 mm 3 mps 748 mmHg 86%
19:00 +8°C° 0 mm 3 mps 748 mmHg 88%
20:00 +8°C° 0 mm 2 mps 748 mmHg 91%
21:00 +8°C° 0 mm 2 mps 748 mmHg 91%
22:00 +7°C° 0 mm 2 mps 749 mmHg 91%
23:00 +7°C° 0 mm 2 mps 749 mmHg 91%

Tomorrow, 17 April, Saturday

Time Temperature Precipitation Wind Pressure Humidity
00:00 +7°C° 0.1 mm 2 mps 749 mmHg 92%
01:00 +7°C° 0.1 mm 2 mps 749 mmHg 93%
02:00 +7°C° 0.1 mm 2 mps 749 mmHg 93%
03:00 +7°C° 0 mm 2 mps 749 mmHg 93%
04:00 +6°C° 0 mm 2 mps 750 mmHg 92%
05:00 +6°C° 0 mm 2 mps 750 mmHg 92%
06:00 +7°C° 0 mm 2 mps 750 mmHg 86%
07:00 +8°C° 0 mm 2 mps 751 mmHg 80%
08:00 +8°C° 0 mm 2 mps 751 mmHg 75%
09:00 +9°C° 0 mm 2 mps 751 mmHg 70%
10:00 +10°C° 0 mm 2 mps 751 mmHg 66%
11:00 +12°C° 0 mm 1 mps 751 mmHg 62%
12:00 +12°C° 0.1 mm 1 mps 751 mmHg 61%
13:00 +12°C° 0.1 mm 1 mps 751 mmHg 59%
14:00 +13°C° 0.1 mm 1 mps 751 mmHg 58%
15:00 +12°C° 0.2 mm 1 mps 751 mmHg 61%
16:00 +12°C° 0.2 mm 2 mps 751 mmHg 65%
17:00 +12°C° 0.2 mm 2 mps 750 mmHg 68%
18:00 +10°C° 0.6 mm 2 mps 750 mmHg 74%
19:00 +9°C° 0.6 mm 2 mps 750 mmHg 81%
20:00 +8°C° 0.6 mm 2 mps 750 mmHg 87%
21:00 +8°C° 0.9 mm 2 mps 750 mmHg 89%
22:00 +8°C° 0.9 mm 3 mps 749 mmHg 90%
23:00 +8°C° 0.9 mm 3 mps 749 mmHg 91%

Day after tomorrow, 18 April, Sunday

Time Temperature Precipitation Wind Pressure Humidity
00:00 +6°C° 0.6 mm 4 mps 749 mmHg 92%
01:00 +6°C° 0.6 mm 4 mps 749 mmHg 93%
02:00 +6°C° 0.6 mm 4 mps 748 mmHg 94%
03:00 +7°C° 0.4 mm 3 mps 748 mmHg 94%
04:00 +7°C° 0.4 mm 3 mps 748 mmHg 95%
05:00 +5°C° 0.4 mm 3 mps 747 mmHg 95%
06:00 +5°C° 0.4 mm 3 mps 748 mmHg 95%
07:00 +5°C° 0.4 mm 3 mps 748 mmHg 94%
08:00 +5°C° 0.4 mm 3 mps 748 mmHg 94%
09:00 +5°C° 0.1 mm 4 mps 748 mmHg 93%
10:00 +5°C° 0.1 mm 4 mps 748 mmHg 92%
11:00 +5°C° 0.1 mm 4 mps 748 mmHg 92%
12:00 +5°C° 0.2 mm 4 mps 749 mmHg 92%
13:00 +4°C° 0.2 mm 4 mps 749 mmHg 93%
14:00 +4°C° 0.2 mm 4 mps 749 mmHg 93%
15:00 +4°C° 0.2 mm 4 mps 749 mmHg 93%
16:00 +4°C° 0.2 mm 4 mps 749 mmHg 93%
17:00 +5°C° 0.2 mm 4 mps 750 mmHg 93%
18:00 +5°C° 0.3 mm 4 mps 750 mmHg 92%
19:00 +5°C° 0.3 mm 4 mps 750 mmHg 92%
20:00 +5°C° 0.3 mm 4 mps 750 mmHg 91%
21:00 +5°C° 0.3 mm 4 mps 750 mmHg 92%
22:00 +5°C° 0.3 mm 4 mps 749 mmHg 92%
23:00 +5°C° 0.3 mm 3 mps 749 mmHg 93%

19 April, Monday

Time Temperature Precipitation Wind Pressure Humidity
00:00 +5°C° 0.1 mm 3 mps 749 mmHg 94%
01:00 +4°C° 0.1 mm 3 mps 749 mmHg 94%
02:00 +4°C° 0.1 mm 3 mps 749 mmHg 95%
03:00 +5°C° 0 mm 2 mps 749 mmHg 95%
04:00 +5°C° 0 mm 2 mps 749 mmHg 95%
05:00 +5°C° 0 mm 2 mps 749 mmHg 95%
06:00 +6°C° 0 mm 2 mps 749 mmHg 93%
07:00 +6°C° 0 mm 2 mps 749 mmHg 91%
08:00 +7°C° 0 mm 2 mps 749 mmHg 89%
09:00 +7°C° 0.5 mm 2 mps 749 mmHg 88%
10:00 +7°C° 0.5 mm 2 mps 748 mmHg 88%
11:00 +8°C° 0.5 mm 3 mps 748 mmHg 87%
12:00 +8°C° 0.5 mm 3 mps 748 mmHg 87%
13:00 +8°C° 0.5 mm 3 mps 748 mmHg 86%
14:00 +8°C° 0.5 mm 4 mps 748 mmHg 85%
15:00 +8°C° 0.4 mm 4 mps 748 mmHg 83%
16:00 +10°C° 0.4 mm 4 mps 748 mmHg 81%
17:00 +10°C° 0.4 mm 4 mps 747 mmHg 80%
18:00 +8°C° 0.3 mm 4 mps 747 mmHg 84%
19:00 +8°C° 0.3 mm 3 mps 747 mmHg 88%
20:00 +7°C° 0.3 mm 3 mps 746 mmHg 92%
21:00 +7°C° 0.1 mm 3 mps 746 mmHg 91%
22:00 +8°C° 0.1 mm 3 mps 745 mmHg 90%
23:00 +7°C° 0.1 mm 4 mps 745 mmHg 89%

20 April, Tuesday

Time Temperature Precipitation Wind Pressure Humidity
00:00 +6°C° 0.1 mm 4 mps 744 mmHg 90%
01:00 +6°C° 0.1 mm 4 mps 743 mmHg 91%
02:00 +6°C° 0.1 mm 4 mps 743 mmHg 92%
03:00 +6°C° 0.3 mm 5 mps 742 mmHg 93%
04:00 +6°C° 0.3 mm 5 mps 741 mmHg 93%
05:00 +5°C° 0.3 mm 6 mps 739 mmHg 94%
06:00 +5°C° 0.2 mm 6 mps 738 mmHg 94%
07:00 +5°C° 0.2 mm 7 mps 737 mmHg 93%
08:00 +5°C° 0.2 mm 7 mps 736 mmHg 93%
09:00 +5°C° 2.6 mm 7 mps 735 mmHg 93%
10:00 +5°C° 2.6 mm 8 mps 734 mmHg 93%
11:00 +5°C° 2.6 mm 8 mps 732 mmHg 93%
12:00 +5°C° 2.5 mm 8 mps 731 mmHg 94%
13:00 +5°C° 2.5 mm 7 mps 730 mmHg 94%
14:00 +5°C° 2.5 mm 7 mps 728 mmHg 94%
15:00 +5°C° 2.6 mm 7 mps 728 mmHg 94%
16:00 +5°C° 2.6 mm 6 mps 728 mmHg 94%
17:00 +6°C° 2.6 mm 5 mps 728 mmHg 94%
18:00 +4°C° 1.1 mm 6 mps 729 mmHg 94%
19:00 +3°C° 1.1 mm 6 mps 729 mmHg 95%
20:00 +2°C° 1.1 mm 6 mps 730 mmHg 95%
21:00 +2°C° 0.8 mm 6 mps 731 mmHg 95%
22:00 +1°C° 0.8 mm 6 mps 731 mmHg 96%
23:00 -1°C° 0.8 mm 7 mps 732 mmHg 96%

21 April, Wednesday

Time Temperature Precipitation Wind Pressure Humidity
00:00 0°C° 0.2 mm 7 mps 733 mmHg 96%
01:00 0°C° 0.2 mm 7 mps 733 mmHg 96%
02:00 +2°C° 0.2 mm 7 mps 734 mmHg 95%
03:00 +2°C° 0.2 mm 7 mps 734 mmHg 96%
04:00 +2°C° 0.2 mm 7 mps 734 mmHg 96%
05:00 +2°C° 0.2 mm 7 mps 735 mmHg 96%
06:00 +2°C° 0.5 mm 7 mps 735 mmHg 96%
07:00 +1°C° 0.5 mm 8 mps 736 mmHg 96%
08:00 +1°C° 0.5 mm 8 mps 736 mmHg 96%
09:00 +2°C° 0.8 mm 8 mps 737 mmHg 96%
10:00 +2°C° 0.8 mm 8 mps 738 mmHg 96%
11:00 +2°C° 0.8 mm 8 mps 738 mmHg 96%
12:00 +2°C° 0.5 mm 8 mps 739 mmHg 96%
13:00 +2°C° 0.5 mm 8 mps 740 mmHg 96%
14:00 +3°C° 0.5 mm 7 mps 741 mmHg 96%
15:00 +3°C° 0.3 mm 7 mps 742 mmHg 96%
16:00 +3°C° 0.3 mm 7 mps 742 mmHg 95%
17:00 +4°C° 0.3 mm 7 mps 743 mmHg 95%
18:00 +4°C° 0.1 mm 6 mps 743 mmHg 93%
19:00 +4°C° 0.1 mm 6 mps 744 mmHg 90%
20:00 +4°C° 0.1 mm 6 mps 744 mmHg 88%
21:00 +4°C° 0.1 mm 6 mps 745 mmHg 87%
22:00 +4°C° 0.1 mm 6 mps 745 mmHg 86%
23:00 +5°C° 0.1 mm 5 mps 746 mmHg 86%
Show more